QPF
0.05 0.06 0.05 0.03 0.03 0.02 0.01 0.02 0.03 0.04 0.04 0.03 0.02 0.00 0.01 0.02 0.01 0.01 0.02 0.01 0.00 0.00 0.00 0.00 0.00 0.00 0.00 0.00 0.00 0.01 0.00 0.00 0.00 0.00 0.00 0.00 0.00 0.00
0.07 0.07 0.06 0.04 0.04 0.03 0.03 0.02 0.03 0.03 0.03 0.02 0.02 0.01 0.01 0.01 0.01 0.01 0.01 0.01 0.00 0.00 0.00 0.00 0.00 0.00 0.00 0.00 0.00 0.00 0.00 0.00 0.00 0.00 0.00 0.00 0.00 0.00
0.07 0.06 0.06 0.05 0.05 0.04 0.04 0.03 0.03 0.03 0.03 0.02 0.01 0.01 0.01 0.02 0.02 0.02 0.01 0.01 0.01 0.01 0.00 0.01 0.01 0.01 0.01 0.01 0.01 0.01 0.00 0.00 0.00 0.00 0.00 0.00 0.00 0.00
0.07 0.07 0.07 0.05 0.04 0.04 0.04 0.03 0.03 0.03 0.02 0.02 0.02 0.01 0.03 0.03 0.03 0.04 0.02 0.01 0.01 0.01 0.00 0.00 0.00 0.00 0.00 0.00 0.00 0.00 0.00 0.00 0.00 0.00 0.00 0.00 0.00 0.00
0.09 0.08 0.07 0.06 0.06 0.05 0.05 0.04 0.05 0.04 0.04 0.03 0.04 0.04 0.04 0.04 0.03 0.03 0.02 0.03 0.02 0.01 0.00 0.00 0.00 0.00 0.00 0.00 0.00 0.00 0.00 0.00 0.00 0.00 0.00 0.00 0.00 0.00
0.08 0.07 0.06 0.06 0.06 0.06 0.05 0.05 0.06 0.06 0.05 0.04 0.04 0.04 0.04 0.03 0.03 0.02 0.02 0.02 0.02 0.01 0.01 0.00 0.00 0.00 0.00 0.00 0.00 0.00 0.00 0.00 0.00 0.00 0.00 0.00 0.00 0.00
0.08 0.06 0.05 0.05 0.05 0.05 0.04 0.06 0.06 0.05 0.06 0.06 0.06 0.05 0.05 0.05 0.04 0.03 0.03 0.02 0.02 0.02 0.01 0.01 0.01 0.01 0.00 0.00 0.00 0.00 0.01 0.01 0.01 0.01 0.00 0.00 0.00 0.00
0.07 0.07 0.06 0.05 0.05 0.04 0.03 0.03 0.04 0.05 0.06 0.07 0.07 0.07 0.06 0.06 0.05 0.04 0.04 0.04 0.03 0.02 0.03 0.02 0.02 0.02 0.02 0.02 0.02 0.01 0.01 0.01 0.01 0.01 0.01 0.01 0.01 0.01
0.10 0.08 0.06 0.05 0.06 0.06 0.06 0.05 0.04 0.04 0.04 0.05 0.06 0.07 0.07 0.07 0.07 0.07 0.06 0.05 0.04 0.04 0.04 0.02 0.03 0.03 0.02 0.02 0.01 0.01 0.01 0.01 0.01 0.02 0.02 0.02 0.02 0.02
0.12 0.11 0.10 0.09 0.08 0.08 0.08 0.07 0.06 0.07 0.07 0.06 0.06 0.08 0.07 0.07 0.05 0.04 0.04 0.03 0.03 0.03 0.04 0.03 0.02 0.03 0.02 0.02 0.01 0.01 0.01 0.01 0.01 0.02 0.02 0.02 0.02 0.02
0.16 0.14 0.11 0.10 0.10 0.10 0.09 0.09 0.09 0.09 0.07 0.06 0.05 0.04 0.03 0.03 0.02 0.02 0.02 0.03 0.03 0.03 0.03 0.03 0.02 0.03 0.02 0.02 0.01 0.01 0.01 0.01 0.01 0.02 0.02 0.02 0.02 0.02
0.16 0.18 0.18 0.16 0.14 0.12 0.10 0.09 0.07 0.05 0.04 0.04 0.03 0.02 0.02 0.03 0.03 0.02 0.03 0.04 0.05 0.05 0.04 0.04 0.03 0.02 0.02 0.02 0.02 0.02 0.02 0.02 0.03 0.02 0.02 0.02 0.02 0.01
0.13 0.13 0.13 0.13 0.11 0.08 0.07 0.05 0.05 0.04 0.03 0.03 0.03 0.03 0.03 0.03 0.04 0.04 0.04 0.04 0.04 0.03 0.02 0.02 0.02 0.02 0.02 0.02 0.01 0.01 0.01 0.02 0.02 0.02 0.02 0.02 0.02 0.01
0.12 0.11 0.10 0.09 0.07 0.06 0.04 0.03 0.03 0.03 0.03 0.03 0.03 0.03 0.03 0.03 0.03 0.03 0.02 0.02 0.03 0.03 0.02 0.03 0.02 0.02 0.02 0.02 0.02 0.01 0.01 0.02 0.02 0.01 0.01 0.01 0.01 0.01
0.07 0.08 0.07 0.07 0.08 0.09 0.08 0.07 0.06 0.05 0.05 0.05 0.04 0.04 0.04 0.04 0.04 0.04 0.03 0.03 0.04 0.04 0.04 0.03 0.03 0.03 0.03 0.03 0.03 0.03 0.03 0.02 0.02 0.02 0.02 0.02 0.02 0.02
0.07 0.08 0.10 0.10 0.10 0.10 0.10 0.10 0.09 0.09 0.08 0.07 0.06 0.06 0.05 0.04 0.03 0.03 0.03 0.03 0.03 0.03 0.04 0.03 0.03 0.03 0.04 0.03 0.04 0.03 0.03 0.03 0.03 0.03 0.03 0.03 0.03 0.02
0.10 0.10 0.10 0.09 0.09 0.08 0.08 0.09 0.09 0.10 0.08 0.07 0.06 0.06 0.05 0.04 0.03 0.03 0.03 0.03 0.03 0.02 0.03 0.03 0.03 0.03 0.03 0.03 0.03 0.03 0.03 0.03 0.03 0.03 0.04 0.03 0.03 0.03
0.08 0.07 0.08 0.07 0.07 0.07 0.06 0.06 0.05 0.05 0.04 0.04 0.04 0.03 0.03 0.02 0.02 0.02 0.02 0.03 0.03 0.02 0.02 0.02 0.02 0.02 0.02 0.02 0.01 0.02 0.02 0.02 0.02 0.03 0.04 0.03 0.03 0.03
0.04 0.05 0.05 0.04 0.03 0.03 0.03 0.03 0.02 0.02 0.02 0.01 0.01 0.02 0.02 0.02 0.02 0.02 0.02 0.01 0.01 0.01 0.01 0.01 0.01 0.01 0.02 0.01 0.01 0.01 0.02 0.02 0.02 0.03 0.03 0.03 0.02 0.02
0.03 0.04 0.03 0.03 0.02 0.02 0.01 0.01 0.01 0.01 0.01 0.01 0.01 0.01 0.01 0.01 0.01 0.01 0.01 0.01 0.01 0.01 0.01 0.01 0.01 0.02 0.03 0.03 0.02 0.02 0.02 0.02 0.03 0.02 0.02 0.03 0.03 0.02
0.01 0.01 0.01 0.01 0.01 0.00 0.00 0.00 0.00 0.00 0.01 0.00 0.00 0.01 0.01 0.01 0.01 0.01 0.01 0.01 0.01 0.01 0.01 0.01 0.02 0.01 0.02 0.02 0.02 0.03 0.04 0.03 0.03 0.04 0.03 0.03 0.03 0.03
0.00 0.00 0.00 0.00 0.00 0.00 0.00 0.00 0.00 0.00 0.00 0.00 0.00 0.01 0.01 0.01 0.01 0.01 0.00 0.00 0.01 0.01 0.01 0.01 0.01 0.01 0.02 0.03 0.03 0.04 0.05 0.05 0.05 0.04 0.03 0.04 0.03 0.03
0.00 0.00 0.00 0.00 0.00 0.00 0.00 0.00 0.00 0.01 0.01 0.01 0.01 0.01 0.01 0.01 0.00 0.00 0.00 0.00 0.01 0.01 0.01 0.01 0.01 0.02 0.03 0.03 0.03 0.03 0.03 0.04 0.05 0.04 0.04 0.04 0.03 0.02
MSLP
1017.31 1017.51 1017.72 1017.93 1018.14 1018.31 1018.42 1018.45 1018.39 1018.23 1018.00 1017.71 1017.40 1017.10 1016.85 1016.68 1016.60 1016.61 1016.70 1016.86 1017.07 1017.30 1017.52 1017.73 1017.92 1018.07 1018.21 1018.33 1018.44 1018.56 1018.67 1018.78 1018.89 1018.99 1019.06 1019.11 1019.13 1019.13
1016.96 1017.14 1017.34 1017.54 1017.75 1017.93 1018.06 1018.13 1018.11 1018.00 1017.81 1017.56 1017.26 1016.96 1016.69 1016.46 1016.31 1016.23 1016.24 1016.31 1016.44 1016.60 1016.78 1016.96 1017.13 1017.29 1017.44 1017.58 1017.71 1017.84 1017.96 1018.06 1018.16 1018.24 1018.30 1018.33 1018.33 1018.32
1016.56 1016.73 1016.92 1017.11 1017.31 1017.49 1017.65 1017.75 1017.77 1017.72 1017.59 1017.39 1017.14 1016.87 1016.59 1016.34 1016.13 1015.98 1015.90 1015.88 1015.92 1015.99 1016.10 1016.23 1016.37 1016.52 1016.66 1016.80 1016.93 1017.06 1017.18 1017.28 1017.35 1017.41 1017.44 1017.45 1017.43 1017.41
1016.16 1016.33 1016.50 1016.68 1016.87 1017.06 1017.22 1017.35 1017.42 1017.42 1017.36 1017.22 1017.03 1016.80 1016.54 1016.29 1016.05 1015.85 1015.69 1015.58 1015.51 1015.49 1015.51 1015.57 1015.65 1015.75 1015.86 1015.98 1016.11 1016.22 1016.32 1016.40 1016.46 1016.49 1016.49 1016.47 1016.44 1016.40
1015.79 1015.96 1016.13 1016.30 1016.49 1016.67 1016.84 1016.98 1017.09 1017.14 1017.13 1017.06 1016.93 1016.75 1016.53 1016.29 1016.05 1015.81 1015.59 1015.39 1015.23 1015.11 1015.02 1014.98 1014.98 1015.01 1015.07 1015.14 1015.23 1015.32 1015.39 1015.45 1015.48 1015.48 1015.46 1015.41 1015.36 1015.31
1015.51 1015.69 1015.86 1016.04 1016.22 1016.40 1016.56 1016.70 1016.82 1016.90 1016.93 1016.91 1016.84 1016.72 1016.55 1016.34 1016.10 1015.84 1015.57 1015.30 1015.05 1014.83 1014.63 1014.48 1014.38 1014.31 1014.29 1014.30 1014.33 1014.38 1014.41 1014.44 1014.44 1014.41 1014.37 1014.31 1014.24 1014.18
1015.33 1015.55 1015.75 1015.94 1016.11 1016.28 1016.43 1016.55 1016.66 1016.74 1016.79 1016.80 1016.77 1016.70 1016.57 1016.40 1016.18 1015.92 1015.62 1015.30 1014.97 1014.65 1014.35 1014.09 1013.87 1013.70 1013.58 1013.50 1013.46 1013.44 1013.43 1013.41 1013.38 1013.34 1013.28 1013.20 1013.13 1013.06
1015.31 1015.57 1015.81 1016.01 1016.19 1016.34 1016.46 1016.55 1016.63 1016.69 1016.73 1016.74 1016.73 1016.69 1016.60 1016.46 1016.27 1016.02 1015.71 1015.36 1014.98 1014.58 1014.19 1013.82 1013.48 1013.20 1012.97 1012.80 1012.67 1012.58 1012.51 1012.44 1012.38 1012.30 1012.22 1012.14 1012.06 1011.99
1015.43 1015.75 1016.03 1016.26 1016.43 1016.56 1016.65 1016.70 1016.73 1016.74 1016.75 1016.74 1016.73 1016.70 1016.63 1016.52 1016.36 1016.13 1015.82 1015.46 1015.04 1014.59 1014.12 1013.67 1013.24 1012.85 1012.52 1012.25 1012.03 1011.85 1011.71 1011.59 1011.48 1011.38 1011.27 1011.17 1011.08 1011.00
1015.70 1016.07 1016.39 1016.64 1016.82 1016.92 1016.97 1016.97 1016.94 1016.89 1016.84 1016.80 1016.76 1016.72 1016.66 1016.57 1016.43 1016.22 1015.93 1015.57 1015.15 1014.66 1014.16 1013.64 1013.13 1012.67 1012.25 1011.88 1011.58 1011.32 1011.10 1010.92 1010.76 1010.60 1010.46 1010.33 1010.21 1010.12
1016.09 1016.50 1016.85 1017.11 1017.28 1017.37 1017.37 1017.32 1017.23 1017.12 1017.01 1016.91 1016.84 1016.77 1016.70 1016.61 1016.48 1016.29 1016.03 1015.68 1015.26 1014.78 1014.25 1013.70 1013.16 1012.64 1012.15 1011.71 1011.33 1011.00 1010.71 1010.45 1010.22 1010.01 1009.81 1009.64 1009.48 1009.34
1016.57 1017.00 1017.35 1017.61 1017.78 1017.84 1017.82 1017.72 1017.57 1017.40 1017.23 1017.08 1016.95 1016.85 1016.75 1016.65 1016.52 1016.34 1016.09 1015.77 1015.37 1014.91 1014.39 1013.84 1013.27 1012.72 1012.20 1011.71 1011.27 1010.87 1010.50 1010.17 1009.87 1009.58 1009.32 1009.07 1008.86 1008.67
1017.11 1017.52 1017.86 1018.11 1018.26 1018.31 1018.26 1018.13 1017.94 1017.73 1017.51 1017.30 1017.13 1016.97 1016.84 1016.71 1016.57 1016.38 1016.14 1015.84 1015.46 1015.02 1014.52 1013.99 1013.44 1012.89 1012.35 1011.83 1011.34 1010.89 1010.46 1010.05 1009.67 1009.30 1008.95 1008.63 1008.34 1008.08
1017.66 1018.03 1018.34 1018.57 1018.70 1018.74 1018.68 1018.54 1018.33 1018.09 1017.84 1017.59 1017.37 1017.17 1016.99 1016.82 1016.64 1016.43 1016.18 1015.88 1015.52 1015.10 1014.64 1014.13 1013.61 1013.07 1012.53 1012.01 1011.50 1011.00 1010.52 1010.05 1009.58 1009.13 1008.69 1008.29 1007.91 1007.58
1018.21 1018.51 1018.77 1018.97 1019.09 1019.13 1019.07 1018.93 1018.73 1018.49 1018.22 1017.95 1017.69 1017.44 1017.21 1016.99 1016.77 1016.52 1016.25 1015.93 1015.57 1015.17 1014.72 1014.25 1013.75 1013.24 1012.72 1012.20 1011.68 1011.15 1010.63 1010.10 1009.57 1009.04 1008.52 1008.03 1007.57 1007.16
1018.72 1018.95 1019.15 1019.32 1019.43 1019.48 1019.44 1019.33 1019.15 1018.93 1018.67 1018.39 1018.10 1017.82 1017.54 1017.26 1016.97 1016.68 1016.36 1016.02 1015.64 1015.23 1014.79 1014.33 1013.86 1013.37 1012.87 1012.36 1011.84 1011.30 1010.75 1010.18 1009.60 1009.01 1008.43 1007.86 1007.33 1006.85
1019.19 1019.34 1019.50 1019.64 1019.75 1019.81 1019.80 1019.73 1019.60 1019.41 1019.17 1018.90 1018.60 1018.29 1017.96 1017.62 1017.28 1016.92 1016.55 1016.15 1015.74 1015.31 1014.87 1014.41 1013.94 1013.47 1012.98 1012.48 1011.97 1011.43 1010.87 1010.28 1009.67 1009.05 1008.42 1007.81 1007.22 1006.69
1019.61 1019.71 1019.83 1019.95 1020.06 1020.15 1020.18 1020.16 1020.08 1019.93 1019.72 1019.46 1019.16 1018.83 1018.46 1018.08 1017.67 1017.25 1016.81 1016.36 1015.90 1015.44 1014.97 1014.49 1014.02 1013.55 1013.06 1012.57 1012.07 1011.54 1010.98 1010.39 1009.78 1009.15 1008.51 1007.87 1007.26 1006.69
1020.01 1020.07 1020.16 1020.28 1020.41 1020.51 1020.59 1020.61 1020.57 1020.47 1020.29 1020.05 1019.76 1019.40 1019.01 1018.58 1018.12 1017.64 1017.14 1016.64 1016.13 1015.62 1015.11 1014.61 1014.12 1013.63 1013.15 1012.66 1012.16 1011.64 1011.10 1010.54 1009.94 1009.33 1008.70 1008.07 1007.46 1006.88
1020.41 1020.45 1020.54 1020.66 1020.80 1020.93 1021.03 1021.09 1021.08 1021.01 1020.86 1020.63 1020.33 1019.97 1019.55 1019.08 1018.58 1018.05 1017.50 1016.95 1016.39 1015.84 1015.30 1014.77 1014.25 1013.75 1013.26 1012.77 1012.28 1011.78 1011.26 1010.73 1010.17 1009.59 1009.00 1008.40 1007.81 1007.23
1020.83 1020.88 1020.97 1021.10 1021.25 1021.39 1021.50 1021.58 1021.58 1021.52 1021.37 1021.15 1020.84 1020.46 1020.02 1019.53 1018.99 1018.43 1017.85 1017.27 1016.68 1016.10 1015.53 1014.97 1014.43 1013.91 1013.41 1012.92 1012.44 1011.95 1011.47 1010.97 1010.46 1009.94 1009.40 1008.84 1008.29 1007.73
1021.31 1021.37 1021.47 1021.60 1021.75 1021.89 1022.00 1022.06 1022.06 1021.98 1021.82 1021.57 1021.25 1020.85 1020.38 1019.87 1019.32 1018.75 1018.15 1017.55 1016.95 1016.36 1015.77 1015.21 1014.66 1014.13 1013.62 1013.13 1012.66 1012.20 1011.74 1011.29 1010.83 1010.36 1009.88 1009.38 1008.86 1008.33
1021.83 1021.91 1022.02 1022.15 1022.29 1022.41 1022.50 1022.53 1022.49 1022.37 1022.17 1021.89 1021.53 1021.10 1020.62 1020.09 1019.54 1018.96 1018.37 1017.78 1017.19 1016.61 1016.03 1015.47 1014.93 1014.40 1013.90 1013.42 1012.96 1012.52 1012.09 1011.68 1011.27 1010.85 1010.42 1009.97 1009.50 1009.00
Thickness
5739 5737 5737 5740 5740 5741 5741 5739 5733 5729 5733 5739 5740 5743 5741 5739 5736 5733 5732 5728 5725 5722 5720 5717 5715 5713 5711 5709 5707 5706 5704 5702 5701 5699 5698 5697 5696 5695
5736 5735 5735 5737 5738 5738 5738 5738 5737 5732 5730 5738 5738 5741 5737 5737 5733 5731 5730 5726 5723 5721 5718 5716 5713 5711 5709 5707 5705 5703 5702 5700 5698 5697 5696 5695 5693 5692
5733 5732 5731 5732 5733 5734 5734 5734 5733 5731 5727 5732 5736 5736 5730 5728 5729 5727 5726 5724 5724 5720 5716 5713 5711 5709 5707 5705 5703 5701 5699 5698 5696 5694 5693 5692 5690 5689
5730 5729 5728 5729 5727 5729 5730 5730 5729 5728 5725 5723 5727 5728 5725 5724 5722 5720 5722 5723 5721 5718 5714 5710 5708 5705 5703 5702 5700 5698 5696 5694 5692 5691 5689 5688 5686 5685
5727 5725 5724 5723 5722 5723 5722 5724 5724 5725 5722 5720 5720 5721 5721 5720 5717 5716 5717 5715 5715 5714 5710 5707 5704 5702 5699 5697 5695 5693 5691 5690 5688 5686 5685 5683 5681 5680
5722 5721 5720 5719 5718 5718 5717 5716 5717 5716 5715 5713 5714 5714 5712 5713 5710 5709 5709 5710 5709 5709 5707 5703 5700 5697 5695 5693 5690 5688 5686 5684 5682 5680 5678 5677 5675 5674
5717 5716 5715 5714 5713 5712 5713 5711 5710 5709 5709 5707 5706 5706 5705 5702 5701 5702 5700 5701 5701 5701 5699 5698 5696 5695 5692 5688 5685 5682 5679 5677 5675 5673 5671 5669 5667 5666
5710 5710 5710 5708 5705 5703 5703 5702 5701 5700 5700 5698 5698 5695 5694 5694 5692 5692 5691 5690 5689 5694 5689 5689 5689 5688 5686 5683 5680 5676 5671 5668 5666 5664 5662 5660 5658 5657
5704 5704 5705 5706 5702 5701 5697 5694 5693 5690 5689 5689 5689 5687 5685 5684 5681 5681 5679 5678 5677 5680 5678 5677 5680 5678 5677 5675 5671 5666 5662 5659 5656 5654 5652 5650 5648 5647
5698 5697 5697 5695 5694 5692 5692 5690 5688 5685 5683 5681 5680 5677 5676 5673 5671 5670 5669 5669 5670 5670 5667 5665 5668 5667 5667 5664 5659 5656 5651 5648 5645 5642 5640 5638 5636 5635
5689 5688 5687 5684 5681 5680 5681 5679 5678 5675 5672 5669 5666 5664 5662 5660 5658 5659 5660 5659 5659 5659 5658 5653 5654 5653 5653 5652 5649 5644 5640 5637 5634 5630 5628 5626 5623 5621
5679 5677 5673 5671 5670 5669 5671 5669 5667 5664 5663 5661 5657 5654 5653 5651 5647 5646 5646 5645 5645 5644 5644 5639 5638 5637 5637 5639 5636 5631 5628 5625 5621 5618 5615 5612 5609 5606
5672 5669 5664 5660 5658 5657 5657 5657 5653 5652 5653 5651 5648 5646 5643 5641 5638 5635 5632 5630 5628 5627 5627 5623 5621 5619 5617 5619 5619 5617 5614 5611 5608 5606 5603 5599 5595 5591
5661 5658 5652 5648 5647 5645 5644 5641 5640 5640 5642 5640 5637 5634 5631 5628 5625 5621 5617 5614 5611 5609 5607 5604 5602 5600 5599 5599 5601 5601 5598 5595 5592 5590 5588 5585 5582 5579
5646 5641 5638 5636 5635 5634 5629 5628 5629 5630 5628 5625 5622 5618 5615 5611 5608 5606 5603 5600 5597 5595 5594 5589 5586 5584 5581 5581 5582 5582 5580 5580 5577 5576 5574 5572 5570 5568
5635 5629 5627 5625 5624 5620 5618 5617 5616 5613 5610 5608 5605 5602 5599 5596 5594 5591 5588 5586 5584 5584 5580 5575 5571 5568 5566 5565 5564 5565 5564 5563 5563 5561 5560 5558 5557 5556
5624 5623 5621 5618 5614 5611 5608 5604 5601 5598 5595 5591 5589 5586 5583 5580 5578 5575 5571 5569 5568 5568 5567 5563 5560 5556 5554 5552 5552 5552 5552 5551 5549 5548 5544 5545 5545 5545
5614 5612 5607 5604 5600 5597 5594 5590 5587 5583 5578 5576 5573 5570 5567 5565 5563 5560 5557 5555 5553 5552 5550 5548 5546 5545 5544 5544 5540 5540 5539 5537 5536 5534 5532 5533 5535 5535
5601 5597 5592 5588 5585 5583 5579 5576 5572 5567 5562 5560 5558 5555 5552 5550 5548 5545 5543 5540 5538 5537 5535 5533 5532 5530 5530 5532 5531 5525 5523 5522 5522 5523 5523 5522 5523 5525
5585 5581 5577 5573 5570 5566 5563 5560 5556 5553 5549 5545 5542 5539 5536 5533 5531 5529 5527 5524 5522 5521 5521 5520 5519 5516 5514 5514 5515 5515 5511 5511 5512 5512 5513 5513 5515 5515
5570 5565 5561 5558 5554 5550 5547 5543 5540 5537 5533 5530 5528 5523 5521 5518 5515 5513 5512 5510 5506 5508 5508 5508 5507 5502 5502 5503 5505 5508 5508 5504 5502 5501 5503 5504 5507 5509
5554 5550 5546 5542 5538 5534 5531 5527 5525 5522 5518 5516 5512 5509 5507 5504 5502 5500 5499 5498 5497 5496 5496 5497 5497 5496 5496 5496 5497 5499 5501 5500 5498 5496 5495 5494 5495 5500
5538 5534 5531 5527 5522 5518 5515 5512 5509 5506 5502 5499 5495 5493 5491 5489 5488 5487 5486 5486 5486 5486 5486 5487 5488 5488 5488 5489 5490 5491 5492 5492 5493 5494 5494 5491 5490 5490